Location: Home
(42.5358°N, 72.7383°W)
Time: 10:39:39
(UTC-05:00)

Vanguard 2 Rocket - Pass Details

Date: 08 December 2021
Orbit: 553 x 3325 km, 32.9° (Epoch: 23 January)

Event Time Altitude Azimuth Distance (km) Brightness Sun altitude
Rises 21:39:38 0° 265° (W) 4,128 10.7 -57.7°
Enters shadow 21:41:48 - 257° (WSW) 3,642 10.2 -58.0°
Reaches altitude 10° 21:42:33 10° 253° (WSW) 3,499 - -58.2°
Maximum altitude 21:50:00 27° 200° (SSW) 3,170 - -59.3°
Drops below altitude 10° 22:01:09 10° 151° (SSE) 5,350 - -61.1°
Sets 22:07:06 0° 142° (SE) 6,774 - -62.0°
